Location: Newark
(53.3333°N, 83.7500°E)
Time: 18:07:35
(UTC+00:00)

SR - Pass Details

Date: 16 November 2019
Orbit: 573 x 882 km, 66.7° (Epoch: 13 December)

Event Time Altitude Azimuth Distance (km) Brightness Sun altitude
Rises 11:19:20 0° 236° (WSW) 3,237 ? -7.7°
Reaches altitude 10° 11:21:42 10° 241° (WSW) 2,358 ? -8.0°
Maximum altitude 11:27:04 55° 319° (NW) 1,002 ? -8.8°
Drops below altitude 10° 11:32:50 10° 37° (NE) 2,522 ? -9.6°
Enters shadow 11:33:35 - 39° (NE) 2,795 ? -9.7°
